AA1FF Weather Reports


Display with metric or nautical units.
time (UTC)temp
F
wind
direction
speed
MPH
gust
MPH
rain 1hr
in
rain 24hr
in
rain mn
in
humidity
%
barometer
mb
20260507033343 58 216 0.0 1.0 0.00 0.00 0.10 100 1007.0
20260507032844 58 125 1.0 2.0 0.00 0.00 0.10 99 1007.0
20260507032343 58 0 0.0 0.0 0.00 0.00 0.10 100 1007.0
20260507031844 58 304 2.0 3.0 0.00 0.00 0.10 100 1007.0
20260507031345 58 303 1.0 2.0 0.00 0.00 0.10 100 1007.0
20260507030845 58 78 1.0 1.0 0.00 0.00 0.10 100 1007.0
20260507030346 58 311 0.0 1.0 0.00 0.00 0.10 100 1007.0
20260507025845 58 92 1.0 2.0 0.00 0.00 0.10 100 1007.0
20260507025345 58 56 0.0 1.0 0.00 0.00 0.10 100 1007.0
20260507024844 58 0 0.0 0.0 0.00 0.00 0.10 100 1007.0
20260507024343 58 294 1.0 3.0 0.00 0.00 0.10 100 1007.0
20260507023845 58 101 0.0 0.0 0.00 0.00 0.10 100 1007.0
20260507023345 58 222 1.0 2.0 0.00 0.00 0.10 100 1007.0
20260507022846 58 39 1.0 2.0 0.00 0.00 0.10 100 1007.0
20260507022345 58 159 2.0 2.0 0.00 0.00 0.10 100 1007.0
20260507021845 58 205 0.0 1.0 0.00 0.00 0.10 100 1007.0
20260507021343 58 87 1.0 2.0 0.00 0.00 0.10 100 1007.0
20260507020845 58 95 0.0 1.0 0.00 0.00 0.10 100 1007.0
20260507020344 58 0 0.0 0.0 0.00 0.00 0.10 100 1007.0
20260507015845 58 124 4.0 5.0 0.00 0.00 0.10 99 1007.0
20260507015345 58 177 0.0 0.0 0.00 0.00 0.10 99 1007.0
20260507014845 57 214 2.0 3.0 0.00 0.00 0.10 99 1007.0
20260507014345 57 223 1.0 2.0 0.00 0.00 0.10 99 1007.0
20260507013845 57 134 0.0 1.0 0.00 0.00 0.10 100 1007.0
20260507013346 57 104 2.0 2.0 0.00 0.00 0.10 100 1007.0
20260507012852 57 205 2.0 3.0 0.00 0.00 0.10 100 1007.0
20260507012344 57 140 2.0 3.0 0.00 0.00 0.10 100 1007.0
20260507011843 57 187 2.0 3.0 0.00 0.00 0.10 100 1007.0
20260507011345 57 122 1.0 2.0 0.00 0.00 0.10 100 1007.0
20260507010845 57 124 1.0 2.0 0.00 0.00 0.10 100 1007.0
20260507010346 57 68 2.0 2.0 0.00 0.00 0.10 100 1007.0
20260507005843 57 128 2.0 2.0 0.00 0.00 0.10 100 1007.0
20260507005347 57 127 1.0 2.0 0.00 0.00 0.10 100 1007.0
20260507004845 57 153 0.0 1.0 0.00 0.00 0.10 100 1007.0
20260507004345 57 234 2.0 3.0 0.00 0.00 0.10 100 1007.0
20260507003844 57 217 1.0 2.0 0.00 0.00 0.10 100 1007.0
20260507003346 57 284 2.0 4.0 0.00 0.00 0.10 100 1007.0
20260507002845 57 164 5.0 7.0 0.00 0.00 0.10 100 1007.0
20260507002345 57 230 2.0 3.0 0.00 0.00 0.10 100 1007.0
20260507001845 57 90 1.0 3.0 0.00 0.00 0.10 100 1007.0
20260507001343 57 167 2.0 3.0 0.00 0.00 0.10 100 1007.0
20260507000845 57 119 0.0 0.0 0.00 0.00 0.10 99 1007.0
20260507000345 57 219 2.0 4.0 0.00 0.00 0.10 99 1007.0
20260506235846 57 21 1.0 2.0 0.00 0.00 0.10 99 1007.0
20260506235345 57 154 2.0 3.0 0.00 0.00 0.10 99 1007.0
20260506234845 57 93 2.0 3.0 0.00 0.00 0.10 99 1007.0
20260506234345 57 171 2.0 3.0 0.00 0.00 0.10 99 1007.0
20260506233845 57 125 2.0 3.0 0.00 0.00 0.10 99 1007.0
20260506233346 57 138 1.0 2.0 0.00 0.00 0.10 99 1007.0
20260506232844 57 224 3.0 4.0 0.00 0.00 0.10 99 1007.0
20260506232343 57 40 2.0 2.0 0.00 0.00 0.10 99 1007.0
20260506231843 57 153 2.0 3.0 0.00 0.00 0.10 99 1007.0
20260506231344 57 338 1.0 3.0 0.00 0.00 0.10 99 1007.0
20260506230844 57 148 2.0 3.0 0.00 0.00 0.10 99 1007.0
20260506230346 57 62 2.0 2.0 0.00 0.00 0.10 99 1007.0
20260506225843 57 120 2.0 2.0 0.00 0.00 0.10 99 1007.0
20260506225345 58 112 1.0 3.0 0.00 0.00 0.10 99 1007.0
20260506224845 58 275 2.0 2.0 0.00 0.00 0.10 99 1007.0
20260506224344 58 91 2.0 2.0 0.00 0.00 0.10 99 1007.0
20260506223844 58 47 1.0 4.0 0.00 0.00 0.10 99 1007.0
20260506223346 58 0 0.0 0.0 0.00 0.00 0.10 99 1007.0
20260506222844 58 98 1.0 2.0 0.00 0.00 0.10 99 1007.0
20260506222346 58 34 1.0 2.0 0.00 0.00 0.10 99 1007.0
20260506221843 58 101 4.0 4.0 0.00 0.00 0.10 99 1007.0
20260506221343 57 340 0.0 1.0 0.00 0.00 0.10 99 1007.0
20260506220845 57 225 2.0 4.0 0.00 0.00 0.10 99 1007.0
20260506220345 57 94 3.0 4.0 0.00 0.00 0.10 99 1007.0
20260506215845 58 84 5.0 8.0 0.00 0.00 0.10 99 1007.0
20260506215343 57 91 2.0 2.0 0.00 0.00 0.10 99 1007.0
20260506214845 57 180 1.0 2.0 0.00 0.00 0.10 99 1007.0
20260506214343 58 252 1.0 2.0 0.00 0.00 0.10 99 1007.0
20260506213845 58 82 2.0 3.0 0.00 0.00 0.10 99 1007.0
20260506213345 58 121 3.0 4.0 0.00 0.00 0.10 99 1007.0
20260506212844 58 105 2.0 2.0 0.00 0.00 0.10 98 1007.0
20260506212344 58 0 0.0 0.0 0.00 0.00 0.10 98 1007.0
20260506211845 58 211 2.0 2.0 0.00 0.00 0.10 98 1007.0
20260506211345 58 126 2.0 3.0 0.00 0.00 0.10 98 1007.0
20260506210846 58 90 0.0 2.0 0.00 0.00 0.10 98 1007.0
20260506210345 58 231 1.0 2.0 0.00 0.00 0.10 98 1007.0
20260506205357 58 103 2.0 3.0 0.00 0.00 0.10 98 1007.0
20260506204847 58 3 1.0 2.0 0.00 0.00 0.10 98 1008.0
20260506204347 58 209 0.0 1.0 0.00 0.00 0.10 98 1007.0
20260506203845 58 137 2.0 2.0 0.00 0.00 0.10 98 1007.0
20260506203346 58 71 3.0 4.0 0.00 0.00 0.10 97 1007.0
20260506202845 58 88 1.0 2.0 0.00 0.00 0.10 97 1007.0
20260506202345 58 283 1.0 4.0 0.00 0.00 0.10 97 1008.0
20260506201847 58 85 4.0 5.0 0.01 0.00 0.10 97 1008.0
20260506201348 58 42 1.0 2.0 0.00 0.00 0.10 97 1008.0
20260506200846 58 228 2.0 5.0 0.01 0.00 0.09 97 1008.0
20260506200346 58 276 0.0 1.0 0.01 0.00 0.09 97 1008.0
20260506195845 58 82 2.0 3.0 0.03 0.00 0.09 97 1008.0
20260506195343 58 119 3.0 6.0 0.03 0.00 0.09 97 1008.0
20260506194845 58 149 2.0 4.0 0.00 0.00 0.09 96 1008.0
20260506194346 58 97 2.0 5.0 0.00 0.00 0.09 96 1008.0
20260506193845 58 47 4.0 5.0 0.00 0.00 0.09 96 1008.0
20260506193346 58 226 2.0 4.0 0.02 0.00 0.09 96 1008.0
20260506192843 58 136 2.0 4.0 0.01 0.00 0.09 96 1008.0
20260506192348 58 157 3.0 6.0 0.01 0.00 0.09 95 1008.0
20260506191357 58 206 2.0 4.0 0.07 0.00 0.08 94 1008.0
20260506190845 58 202 2.0 3.0 0.06 0.00 0.07 94 1008.0
20260506190347 58 166 1.0 2.0 0.04 0.00 0.06 94 1008.0
20260506185844 59 85 3.0 7.0 0.10 0.00 0.06 93 1008.0
20260506185347 59 115 1.0 2.0 0.06 0.00 0.05 92 1008.0
20260506184845 59 127 2.0 4.0 0.05 0.00 0.05 92 1008.0
20260506184347 59 119 1.0 3.0 0.04 0.00 0.04 91 1008.0
20260506183846 60 126 3.0 5.0 0.04 0.00 0.04 90 1008.0
20260506183346 60 176 1.0 3.0 0.02 0.00 0.03 89 1008.0
20260506182847 60 98 2.0 5.0 0.04 0.00 0.03 88 1009.0
20260506182347 61 93 2.0 6.0 0.05 0.00 0.03 87 1009.0
20260506181845 61 173 1.0 2.0 0.08 0.00 0.02 85 1009.0
20260506181345 62 298 2.0 3.0 0.03 0.00 0.02 85 1009.0
20260506180846 62 172 3.0 5.0 0.06 0.00 0.01 81 1009.0
20260506180343 63 155 2.0 3.0 0.06 0.00 0.01 79 1009.0
20260506175846 64 144 3.0 6.0 0.01 0.00 0.00 76 1009.0
20260506175345 64 161 3.0 5.0 0.05 0.00 0.00 75 1009.0
20260506174845 64 121 2.0 4.0 0.00 0.00 0.00 73 1009.0
20260506174346 65 212 4.0 8.0 0.00 0.00 0.00 72 1009.0
20260506173846 65 108 2.0 4.0 0.00 0.00 0.00 73 1009.0
20260506173345 65 121 5.0 8.0 0.00 0.00 0.00 71 1009.0
20260506172846 66 91 5.0 9.0 0.00 0.00 0.00 70 1009.0
20260506172345 66 163 3.0 5.0 0.00 0.00 0.00 69 1009.0
20260506171846 66 179 2.0 5.0 0.00 0.00 0.00 68 1009.0
20260506171345 67 202 3.0 6.0 0.00 0.00 0.00 67 1009.0
20260506170846 67 111 4.0 9.0 0.00 0.00 0.00 66 1009.0
20260506170346 68 69 3.0 6.0 0.00 0.00 0.00 66 1009.0
20260506165849 68 129 4.0 6.0 0.00 0.00 0.00 63 1009.0
20260506165345 68 229 4.0 6.0 0.00 0.00 0.00 65 1009.0
20260506164845 68 190 4.0 7.0 0.00 0.00 0.00 65 1009.0
20260506164345 68 133 2.0 3.0 0.00 0.00 0.00 65 1009.0
20260506163849 68 150 3.0 4.0 0.00 0.00 0.00 64 1009.0
20260506163345 69 80 5.0 9.0 0.00 0.00 0.00 63 1009.0
20260506162846 69 73 5.0 9.0 0.00 0.00 0.00 62 1009.0
20260506162345 68 56 3.0 8.0 0.00 0.00 0.00 62 1009.0
20260506161845 68 199 6.0 10.0 0.00 0.00 0.00 63 1009.0
20260506161346 68 116 6.0 11.0 0.00 0.00 0.00 62 1010.0
20260506160844 69 93 4.0 7.0 0.00 0.00 0.00 63 1009.0
20260506160346 69 212 4.0 6.0 0.00 0.00 0.00 61 1010.0
20260506155845 69 188 3.0 5.0 0.00 0.00 0.00 61 1009.0
20260506155344 69 177 3.0 11.0 0.00 0.00 0.00 62 1010.0
20260506154845 69 189 5.0 8.0 0.00 0.00 0.00 62 1010.0
20260506154346 69 88 2.0 4.0 0.00 0.00 0.00 63 1010.0
20260506153843 69 86 4.0 7.0 0.00 0.00 0.00 62 1010.0
20260506153345 69 73 2.0 4.0 0.00 0.00 0.00 60 1010.0